Temp
44 42 41 42 42 43 43 44 41 34 34 38 39 43 43 45 48 48 48 53 57 58 58 59 59 61 62 64 65 66 67 69 70 70 71 71 72 72
47 45 43 42 43 42 41 41 42 40 37 39 40 41 43 47 48 47 46 53 53 55 56 56 57 59 60 62 63 64 65 67 68 69 70 70 71 70
45 45 44 45 42 41 41 41 39 39 37 37 38 40 40 41 43 43 44 42 43 50 52 54 55 56 58 60 61 62 63 65 67 68 69 69 69 68
43 43 44 48 44 42 40 40 39 39 37 35 37 37 39 39 40 39 42 44 40 46 50 53 53 55 56 58 58 60 61 63 65 67 68 69 66 65
45 44 44 43 41 40 42 40 40 44 38 37 36 37 37 36 36 37 37 36 41 45 46 50 55 58 59 58 58 59 59 61 62 64 63 63 63 62
45 44 45 45 44 40 40 40 41 40 42 38 37 36 35 35 35 32 30 33 34 39 41 47 51 58 59 59 59 59 58 60 60 59 58 59 59 59
44 45 45 44 48 45 43 40 39 38 38 36 35 34 34 34 30 26 27 33 34 35 34 39 43 45 49 54 55 54 55 56 56 56 55 55 55 55
41 43 42 46 47 51 52 51 44 38 36 37 37 35 32 30 32 32 32 33 32 35 32 34 39 42 45 48 52 52 52 52 52 52 51 51 51 52
43 43 41 46 46 42 46 44 45 45 47 41 37 34 33 33 33 32 32 32 31 32 33 32 34 38 43 46 49 50 50 49 49 49 49 49 50 50
41 42 41 43 43 39 38 37 38 37 35 37 35 34 33 33 34 33 33 32 32 32 33 31 33 32 38 43 47 48 48 47 47 48 48 47 48 49
38 38 38 38 42 40 35 34 34 34 42 43 41 41 41 40 37 35 32 32 31 31 33 33 32 32 33 33 41 46 46 47 47 47 46 45 45 45
39 41 43 40 42 40 33 33 32 32 33 33 34 35 38 40 40 36 35 32 32 31 34 33 33 32 31 33 34 38 39 45 46 46 45 45 44 40
38 39 42 45 44 43 40 35 34 35 36 34 34 34 34 34 35 36 36 35 33 32 37 35 33 33 32 32 33 33 35 36 38 40 44 44 44 41
37 39 42 46 45 44 41 41 40 37 35 34 33 32 32 33 33 34 35 35 36 35 36 37 33 32 31 30 30 33 34 35 36 36 37 41 42 42
42 44 44 43 43 42 43 42 40 35 34 33 31 31 33 35 36 36 37 37 37 37 38 36 34 33 32 29 29 29 32 32 33 33 36 35 33 37
38 39 40 40 41 39 36 35 36 35 31 30 30 31 34 33 32 32 32 33 32 31 35 37 34 34 30 29 30 29 29 29 32 30 32 32 32 33
36 35 33 33 32 32 32 32 33 31 30 30 30 31 32 33 31 31 32 32 30 29 30 32 32 33 30 28 28 31 31 32 33 34 34 34 36 36
34 31 30 30 29 29 29 29 30 31 29 30 29 30 30 30 30 31 30 29 29 29 29 30 30 29 30 34 35 31 31 31 32 33 34 32 32 35
31 30 30 30 29 30 29 29 28 28 29 28 28 28 30 30 30 29 30 29 29 28 29 29 28 28 27 27 31 37 31 32 32 32 32 32 31 33
31 30 30 31 30 30 31 31 30 31 31 31 30 29 29 30 29 29 29 28 28 28 29 30 28 28 26 28 29 32 37 33 32 31 31 34 34 39
30 30 30 30 30 31 32 32 32 33 32 31 30 30 30 31 29 30 30 35 32 31 31 31 32 37 31 31 31 31 33 37 37 34 33 31 27 29
29 29 29 30 30 30 31 31 30 30 30 30 30 30 31 31 30 31 31 30 29 29 30 29 30 31 30 28 26 26 30 33 37 39 39 38 33 29
29 29 29 29 30 31 31 31 31 31 31 31 31 31 32 32 32 32 32 33 33 32 32 31 31 32 30 30 30 30 29 29 29 32 34 38 39 40
MSLP
1007.22 1007.57 1007.97 1008.01 1008.11 1008.29 1008.72 1008.73 1009.62 1010.28 1010.31 1009.82 1009.86 1009.35 1009.31 1009.37 1009.44 1009.66 1009.94 1009.89 1009.58 1009.47 1009.26 1009.10 1008.79 1008.36 1008.14 1007.80 1007.56 1007.07 1006.71 1006.74 1006.80 1006.65 1006.92 1007.64 1008.21 1008.99
1006.82 1007.21 1007.51 1007.69 1007.88 1008.07 1008.47 1008.73 1008.86 1009.14 1009.68 1009.55 1009.25 1009.16 1009.05 1009.13 1009.22 1009.33 1009.39 1009.23 1008.97 1008.77 1008.49 1008.42 1007.99 1007.73 1007.21 1006.98 1006.80 1006.51 1006.33 1006.05 1005.88 1005.94 1006.40 1006.72 1007.42 1008.19
1006.60 1006.83 1007.01 1007.27 1007.75 1007.98 1008.14 1008.39 1008.66 1009.05 1009.27 1009.28 1009.06 1008.91 1009.06 1008.93 1008.86 1008.95 1009.02 1008.97 1008.69 1008.43 1007.96 1007.47 1007.02 1006.76 1006.35 1006.14 1006.02 1005.74 1005.60 1005.44 1005.20 1005.38 1005.63 1006.06 1006.60 1007.11
1006.30 1006.58 1006.72 1006.64 1007.13 1007.39 1007.79 1008.10 1008.24 1008.40 1008.89 1009.18 1009.12 1009.16 1009.06 1008.88 1008.85 1008.75 1008.79 1008.74 1008.56 1008.12 1007.28 1006.40 1005.76 1005.09 1004.72 1004.65 1004.71 1004.44 1004.47 1004.52 1004.50 1004.58 1004.62 1005.25 1006.06 1006.87
1005.87 1006.06 1006.23 1006.49 1006.73 1006.86 1007.20 1007.42 1007.78 1008.02 1008.25 1008.69 1008.87 1008.92 1009.05 1008.96 1009.03 1008.85 1008.79 1008.49 1008.26 1007.87 1006.98 1005.53 1003.83 1002.66 1002.44 1003.01 1003.30 1003.51 1003.66 1003.57 1003.53 1003.73 1004.07 1004.95 1006.14 1007.04
1005.47 1005.66 1005.81 1005.98 1006.22 1006.37 1006.61 1006.82 1007.13 1007.47 1007.56 1008.22 1008.32 1008.65 1009.00 1009.01 1009.14 1009.10 1009.19 1008.89 1008.41 1007.71 1007.02 1005.52 1003.57 1001.21 1001.14 1001.55 1001.80 1001.92 1002.51 1002.52 1002.78 1003.35 1004.22 1005.22 1006.38 1007.58
1005.36 1005.38 1005.48 1005.66 1005.64 1005.75 1005.94 1006.21 1006.48 1006.76 1007.24 1007.68 1008.00 1008.34 1008.62 1008.85 1009.00 1008.93 1009.24 1009.21 1008.69 1008.46 1007.64 1005.94 1004.73 1003.33 1002.20 1001.67 1001.47 1001.70 1002.12 1002.68 1003.31 1004.28 1005.17 1006.23 1006.96 1007.88
1005.20 1005.26 1005.43 1005.29 1005.11 1004.77 1004.72 1005.05 1005.57 1005.90 1006.37 1006.71 1007.03 1007.48 1007.84 1008.13 1008.54 1008.69 1009.02 1009.16 1009.18 1008.56 1008.39 1006.88 1006.35 1004.77 1004.05 1003.28 1003.37 1003.27 1003.43 1004.14 1004.75 1005.27 1006.07 1006.86 1007.82 1008.44
1005.12 1005.23 1005.28 1005.06 1004.80 1004.92 1004.84 1005.20 1005.33 1005.52 1005.57 1005.94 1006.41 1006.82 1007.14 1007.07 1007.57 1008.24 1008.64 1008.92 1009.18 1009.08 1008.57 1008.19 1007.96 1006.62 1005.31 1004.78 1005.79 1004.80 1005.03 1005.26 1006.26 1006.84 1006.76 1007.63 1008.13 1008.76
1005.42 1005.43 1005.39 1004.92 1004.87 1005.30 1005.64 1005.95 1006.13 1006.17 1006.11 1006.02 1006.01 1005.72 1005.87 1006.24 1006.75 1007.08 1008.06 1008.77 1009.14 1009.19 1008.86 1009.21 1008.76 1007.96 1007.21 1006.52 1007.37 1006.38 1006.75 1006.47 1007.71 1007.69 1007.73 1008.23 1009.15 1008.72
1006.69 1006.57 1006.35 1005.99 1005.79 1005.96 1006.19 1006.46 1006.72 1006.82 1006.32 1006.04 1005.95 1005.87 1006.08 1006.50 1006.97 1007.39 1008.30 1008.75 1009.35 1009.65 1009.56 1009.50 1009.60 1009.27 1008.55 1008.87 1008.90 1007.94 1008.03 1008.52 1008.91 1008.04 1008.40 1009.02 1009.99 1009.67
1007.61 1007.25 1007.03 1006.97 1006.93 1007.01 1007.15 1007.25 1007.41 1007.82 1007.56 1007.45 1007.22 1007.28 1007.32 1007.50 1007.74 1008.16 1008.46 1008.85 1009.20 1009.62 1009.88 1009.82 1009.93 1009.77 1010.14 1010.48 1010.27 1009.91 1009.73 1008.94 1009.48 1008.62 1009.23 1009.74 1010.79 1010.14
1008.84 1008.54 1008.08 1007.87 1007.84 1008.01 1008.26 1008.37 1008.49 1008.68 1008.65 1008.64 1008.62 1008.54 1008.50 1008.57 1008.75 1008.99 1009.20 1009.40 1009.57 1009.81 1009.92 1009.93 1010.18 1010.26 1010.40 1010.86 1011.05 1011.01 1010.63 1009.91 1010.55 1010.24 1010.21 1010.45 1010.11 1011.15
1010.07 1009.89 1009.40 1009.01 1008.92 1009.06 1009.22 1009.32 1009.49 1009.62 1009.59 1009.47 1009.41 1009.50 1009.60 1009.76 1009.89 1009.97 1010.08 1010.19 1010.22 1010.35 1010.32 1010.38 1010.61 1010.69 1010.90 1011.46 1011.79 1011.80 1011.51 1011.41 1011.38 1011.68 1011.05 1010.38 1010.81 1010.87
1011.44 1011.19 1011.04 1010.82 1010.60 1010.29 1010.31 1010.52 1010.64 1010.71 1010.70 1010.60 1010.69 1010.75 1010.74 1010.77 1010.60 1010.57 1010.62 1010.69 1010.74 1010.77 1010.71 1010.67 1010.92 1011.41 1011.47 1011.83 1012.07 1012.21 1011.92 1012.26 1012.15 1011.46 1010.98 1010.99 1011.25 1011.31
1013.24 1012.84 1012.55 1012.33 1012.05 1012.08 1011.91 1011.88 1011.78 1011.79 1011.90 1012.05 1011.99 1011.86 1011.68 1011.67 1011.68 1011.52 1011.40 1011.39 1011.34 1011.73 1011.57 1011.53 1011.55 1011.52 1012.06 1012.40 1012.62 1012.76 1012.51 1012.34 1012.14 1011.74 1011.24 1010.91 1011.00 1010.76
1014.32 1014.08 1013.91 1013.76 1013.65 1013.55 1013.40 1013.37 1013.16 1013.06 1012.99 1012.99 1012.82 1012.70 1012.53 1012.42 1012.48 1012.30 1012.12 1012.05 1012.24 1012.58 1012.62 1012.45 1012.32 1012.25 1012.37 1012.54 1012.71 1012.66 1012.54 1012.53 1012.38 1011.74 1011.38 1011.12 1011.15 1011.08
1015.81 1015.70 1015.55 1015.37 1015.20 1015.04 1014.85 1014.68 1014.47 1014.27 1014.16 1013.99 1013.91 1013.76 1013.67 1013.50 1013.35 1013.20 1013.11 1013.07 1013.09 1013.09 1013.00 1012.99 1012.95 1012.96 1012.89 1012.85 1012.64 1012.67 1012.44 1011.92 1011.44 1011.06 1010.90 1010.91 1010.99 1010.72
1017.12 1017.04 1016.85 1016.66 1016.44 1016.11 1015.80 1015.56 1015.38 1015.15 1014.84 1014.80 1014.73 1014.55 1014.31 1014.11 1013.97 1013.87 1013.80 1013.68 1013.62 1013.49 1013.28 1013.07 1012.90 1012.74 1012.77 1012.72 1012.82 1012.57 1012.45 1012.17 1011.90 1011.71 1011.79 1011.68 1011.45 1011.03
1018.31 1018.12 1017.93 1017.64 1017.36 1016.96 1016.61 1016.33 1016.11 1015.73 1015.46 1015.34 1015.22 1015.09 1014.92 1014.80 1014.70 1014.57 1014.37 1014.24 1014.08 1013.97 1013.78 1013.55 1013.36 1013.28 1013.27 1013.11 1013.00 1012.82 1012.41 1012.10 1011.86 1011.76 1011.70 1011.49 1011.26 1010.75
1019.42 1019.14 1018.88 1018.58 1018.22 1017.79 1017.44 1017.03 1016.66 1016.26 1016.06 1015.86 1015.66 1015.40 1015.20 1015.03 1014.91 1014.71 1014.50 1014.22 1014.20 1014.19 1013.95 1013.79 1013.56 1013.11 1013.20 1013.16 1013.13 1013.10 1012.84 1012.46 1011.96 1011.56 1011.40 1011.19 1010.88 1010.35
1020.33 1019.93 1019.66 1019.33 1018.89 1018.47 1018.11 1017.72 1017.34 1016.98 1016.78 1016.53 1016.28 1016.00 1015.70 1015.39 1015.15 1014.93 1014.70 1014.54 1014.44 1014.32 1014.29 1014.11 1013.80 1013.52 1013.49 1013.37 1013.19 1013.13 1012.85 1012.48 1012.09 1011.77 1011.32 1011.07 1010.91 1010.60
1021.12 1020.62 1020.21 1019.78 1019.40 1018.98 1018.59 1018.18 1017.78 1017.51 1017.24 1016.98 1016.69 1016.48 1016.16 1015.87 1015.66 1015.24 1015.05 1014.93 1014.53 1014.38 1014.19 1014.20 1014.14 1013.92 1013.79 1013.57 1013.45 1013.37 1013.22 1012.96 1012.62 1012.18 1011.86 1011.33 1010.90 1010.64
Wind_Speed
5 5 4 4 3 3 3 4 5 4 4 3 3 3 3 2 5 3 4 10 16 17 20 22 24 26 27 26 28 26 24 24 23 24 29 29 29 27
6 6 3 2 2 3 4 3 2 5 6 4 5 4 3 2 5 5 5 13 15 19 21 23 24 27 28 28 26 25 25 25 24 23 27 29 30 26
7 6 10 8 3 1 1 1 3 3 5 2 2 2 3 4 5 3 4 4 6 19 22 24 26 29 30 29 28 27 26 26 24 25 26 26 26 29
8 10 9 7 8 6 3 4 3 2 3 4 3 4 6 3 4 5 3 3 5 15 21 26 30 32 32 30 29 27 27 26 24 24 26 26 25 28
6 7 8 6 6 4 7 6 5 4 3 3 3 2 3 1 2 2 3 4 4 14 18 24 29 30 29 29 28 26 26 26 23 19 20 25 26 26
7 6 8 9 9 7 6 6 5 5 3 4 3 3 3 3 2 2 3 2 4 7 15 17 22 12 23 23 25 24 21 21 22 26 26 25 26 24
3 4 4 7 13 12 6 6 6 6 6 5 4 3 4 3 4 2 2 2 2 3 8 9 9 7 10 14 17 21 21 23 24 24 22 19 20 19
5 4 5 11 11 17 19 21 12 6 5 5 3 5 4 4 3 3 3 1 1 2 4 8 9 7 8 10 24 27 26 25 24 25 23 21 18 16
2 3 4 5 8 1 5 12 7 3 5 4 6 8 6 8 8 4 3 2 1 3 2 6 7 7 6 13 20 26 25 25 22 20 22 18 16 15
8 8 8 5 5 7 7 7 5 3 2 3 6 7 3 7 7 5 6 5 2 2 3 5 5 8 7 10 18 22 20 23 18 18 20 18 14 17
12 11 10 11 16 17 10 10 9 10 11 8 8 9 12 17 13 10 6 6 3 2 5 2 3 5 6 7 7 20 18 18 17 19 17 16 11 12
11 13 24 18 24 23 11 11 13 9 11 12 12 16 15 16 18 8 4 6 3 3 3 2 2 2 3 3 5 6 6 10 15 18 16 14 8 4
10 10 10 24 24 24 20 11 12 10 13 9 8 8 9 10 8 9 9 5 4 3 2 2 3 2 3 2 2 5 4 6 6 8 12 11 12 5
10 9 12 22 23 23 15 23 22 14 7 8 8 8 7 7 7 7 7 7 6 4 2 2 2 3 3 2 2 4 4 4 3 1 1 7 9 8
11 20 25 25 24 19 23 21 15 7 7 8 7 7 5 5 6 6 5 7 10 9 7 5 4 3 2 2 2 2 0 2 2 2 1 4 3 3
14 12 17 18 22 17 13 12 8 8 7 6 5 4 5 6 6 4 4 5 8 7 10 9 7 4 4 3 2 1 2 1 4 3 3 2 3 2
12 10 10 9 9 9 8 8 7 7 7 6 6 6 6 6 5 4 4 5 5 3 4 5 5 7 5 2 3 2 1 1 2 2 1 1 1 2
8 8 9 8 8 8 7 7 7 8 5 5 5 5 4 4 4 4 4 4 3 2 1 1 1 1 1 5 7 3 3 3 4 6 5 3 2 3
7 8 7 7 6 6 6 5 4 4 4 4 4 4 4 4 4 4 3 3 3 3 3 2 3 2 4 4 2 6 2 2 2 1 1 2 2 4
7 7 7 7 6 6 6 5 5 4 4 4 4 4 4 3 3 3 3 2 3 3 3 3 3 3 2 1 1 2 8 2 2 3 1 1 4 6
6 6 6 6 5 5 5 5 5 4 4 4 4 4 4 3 4 4 4 6 5 2 6 5 3 5 1 0 1 1 2 9 7 2 1 1 2 3
6 6 5 5 5 5 5 4 4 5 5 4 4 4 4 4 4 4 4 4 4 2 1 1 4 4 3 3 3 3 3 3 7 11 15 7 2 3
6 5 5 5 5 4 4 4 4 4 4 4 4 4 4 3 3 3 3 3 3 4 3 5 3 3 4 3 5 4 5 4 3 4 4 15 13 11
Wind_Direction
186 189 201 221 207 207 207 165 183 208 253 257 234 242 242 255 261 260 261 281 296 298 292 285 283 280 275 271 270 272 270 265 262 246 223 219 215 214
231 224 187 182 172 177 201 206 235 182 239 195 239 223 252 268 266 275 269 293 296 296 292 284 278 276 272 266 263 264 263 259 256 247 234 222 214 204
224 244 234 225 228 218 174 174 187 184 251 298 240 250 261 261 276 257 269 284 295 298 294 291 281 274 268 260 256 253 254 252 248 242 235 227 226 178
224 221 238 222 220 201 193 227 194 205 188 245 234 246 226 245 269 304 296 305 302 297 299 295 285 268 257 252 251 248 249 248 242 236 230 213 180 165
226 231 226 221 241 213 225 214 200 207 176 199 235 219 251 225 312 318 304 311 311 318 315 316 291 260 242 239 241 244 245 241 233 211 163 155 156 161
225 216 225 219 227 207 208 204 207 199 183 241 236 218 208 219 224 210 312 326 326 339 333 325 348 318 227 232 232 231 245 219 174 150 149 151 158 161
262 236 223 231 237 223 212 211 199 202 196 198 195 180 197 189 201 194 172 266 329 351 318 344 349 5 37 68 95 104 113 119 123 124 126 132 139 145
235 215 235 270 270 251 233 223 207 189 199 190 197 222 221 168 173 171 163 193 275 10 317 0 346 11 49 64 90 99 102 107 111 117 117 119 124 128
271 230 246 247 269 327 353 53 45 13 243 208 223 214 216 196 166 144 156 131 116 322 333 38 338 11 29 73 79 91 98 99 103 113 112 116 118 125
35 44 38 11 144 105 97 82 60 47 321 274 253 227 185 152 154 135 128 110 98 28 352 68 341 21 21 60 82 84 91 94 97 104 104 95 102 107
66 66 59 58 71 82 77 81 63 36 27 87 103 112 127 125 118 119 125 124 102 28 6 67 358 35 24 20 37 73 78 93 105 106 100 95 97 91
57 63 76 77 73 68 63 69 70 54 52 50 48 50 60 78 79 66 83 100 98 76 359 63 17 17 45 9 8 33 33 56 100 87 83 94 109 72
55 50 60 75 77 80 77 72 75 66 58 61 63 61 61 59 58 58 52 52 72 70 31 54 29 50 65 93 10 20 32 36 50 50 78 97 104 144
48 44 59 69 73 71 67 70 68 60 56 58 59 56 59 58 52 56 57 62 57 63 329 54 57 30 52 63 55 350 30 26 25 126 81 75 74 56
50 56 56 52 46 49 66 65 53 46 50 57 58 54 52 54 51 58 61 76 71 57 50 58 99 104 62 82 90 345 34 15 338 7 68 80 67 33
36 49 55 52 54 47 43 39 37 53 53 44 44 38 52 48 41 7 48 47 61 44 41 50 53 62 88 68 98 102 7 110 330 355 337 41 30 23
36 35 33 31 32 28 32 32 35 36 37 28 39 40 45 54 43 18 49 59 77 80 62 33 31 62 69 103 71 51 8 202 270 331 354 83 41 12
41 37 33 29 29 23 25 23 29 34 26 38 37 38 41 41 39 34 41 44 64 29 24 331 279 151 78 62 68 15 2 340 352 11 19 352 353 352
40 33 34 29 24 24 24 29 25 15 23 37 42 30 30 36 54 34 36 38 43 21 5 341 8 52 83 84 319 22 11 358 333 74 69 16 308 311
35 31 27 21 16 13 11 14 11 14 17 26 36 37 41 46 40 37 35 44 35 10 15 18 40 59 131 98 113 314 349 357 323 345 325 288 242 294
17 24 16 12 10 9 12 10 4 11 19 15 13 23 22 29 25 27 23 38 56 27 57 51 2 78 219 179 87 21 347 5 20 11 324 359 321 313
13 13 11 11 9 8 9 8 10 11 8 13 16 20 11 13 13 11 8 5 18 41 83 348 17 20 33 54 39 11 346 336 9 26 20 47 311 335
3 1 5 6 3 1 11 10 10 7 8 6 10 8 6 12 358 6 13 20 22 32 27 42 27 4 25 14 50 32 30 1 347 353 4 8 32 46